Stations météo

Publicité
Elphin, Grande-Bretagne (99153): Température de l'air & dewpoint: 14.04.2018 09:00:00 - 20.04.2018 09:00:00 (BST)Elphin, Grande-Bretagne (99153): Quantités de précipitations: 14.04.2018 09:00:00 - 20.04.2018 09:00:00 (BST)
Date & Time tt [°C] td [°C] rr [mm]
20.04.2018 09:00:00 8,8 6,4 0,8
20.04.2018 08:00:00 8,7 6,6 0,0
20.04.2018 07:00:00 6,5 5,1 0,0
20.04.2018 06:00:00 5,2 3,7 0,0
20.04.2018 05:00:00 5,7 4,4 0,0
20.04.2018 04:00:00 5,5 4,1 0,0
20.04.2018 03:00:00 6,0 3,1 0,0
20.04.2018 02:00:00 7,6 4,0 0,0
20.04.2018 01:00:00 8,3 4,7 0,0
20.04.2018 00:00:00 7,6 3,7 0,0
19.04.2018 23:00:00 8,3 4,6 0,0
19.04.2018 22:00:00 6,4 4,5 0,0
19.04.2018 21:00:00 8,3 4,6 0,0
19.04.2018 20:00:00 11,9 6,8 0,0
19.04.2018 19:00:00 13,3 8,2 0,0
19.04.2018 18:00:00 14,7 8,5 0,0
19.04.2018 17:00:00 13,5 7,8 0,0
19.04.2018 16:00:00 13,3 8,6 0,0
19.04.2018 15:00:00 13,9 9,0 0,0
19.04.2018 14:00:00 12,8 9,6 0,0
19.04.2018 13:00:00 12,1 10,0 0,0
19.04.2018 12:00:00 12,2 9,5 0,0
19.04.2018 11:00:00 12,0 9,1 0,0
19.04.2018 10:00:00 13,3 9,1 0,0
19.04.2018 09:00:00 13,1 9,3 0,0
19.04.2018 08:00:00 - - 0,0
19.04.2018 07:00:00 - - -
19.04.2018 06:00:00 - - -
19.04.2018 05:00:00 - - -
19.04.2018 04:00:00 - - -
19.04.2018 03:00:00 - - -
19.04.2018 02:00:00 15,8 7,6 0,0
19.04.2018 01:00:00 16,5 7,6 0,0
19.04.2018 00:00:00 13,8 8,7 0,0
18.04.2018 23:00:00 14,1 8,5 0,0
18.04.2018 22:00:00 13,0 8,3 0,0
18.04.2018 21:00:00 13,8 8,6 0,0
18.04.2018 20:00:00 13,8 8,7 0,0
18.04.2018 19:00:00 15,0 8,4 0,0
18.04.2018 18:00:00 15,5 7,0 0,0
18.04.2018 17:00:00 16,8 6,2 0,0
18.04.2018 16:00:00 17,4 5,8 0,0
18.04.2018 15:00:00 17,3 6,1 0,0
18.04.2018 14:00:00 17,0 6,3 0,0
18.04.2018 13:00:00 16,2 5,7 0,0
18.04.2018 12:00:00 16,9 6,6 0,0
18.04.2018 11:00:00 15,2 5,9 0,0
18.04.2018 10:00:00 14,9 7,1 0,0
18.04.2018 09:00:00 13,3 6,8 0,0
18.04.2018 08:00:00 10,3 7,1 0,0
18.04.2018 07:00:00 8,2 6,3 0,0
18.04.2018 06:00:00 7,3 5,6 0,0
18.04.2018 05:00:00 8,3 6,2 0,0
18.04.2018 04:00:00 6,8 4,3 0,0
18.04.2018 03:00:00 10,0 5,9 0,0
18.04.2018 02:00:00 9,2 6,6 0,0
18.04.2018 01:00:00 9,1 6,1 0,0
18.04.2018 00:00:00 9,4 6,0 0,0
17.04.2018 23:00:00 10,6 5,8 0,4
17.04.2018 22:00:00 12,1 6,0 0,0
17.04.2018 21:00:00 10,9 7,4 0,0
17.04.2018 20:00:00 12,3 6,5 0,0
17.04.2018 19:00:00 13,4 6,2 0,0
17.04.2018 18:00:00 14,2 6,3 0,0
17.04.2018 17:00:00 14,4 9,9 0,6
17.04.2018 16:00:00 15,9 5,8 0,0
17.04.2018 15:00:00 16,0 4,7 0,0
17.04.2018 14:00:00 15,9 4,8 0,0
17.04.2018 13:00:00 15,3 4,0 0,0
17.04.2018 12:00:00 16,4 6,7 0,0
17.04.2018 11:00:00 14,1 7,6 0,2
17.04.2018 10:00:00 12,0 7,3 0,0
17.04.2018 09:00:00 11,6 6,8 0,0
17.04.2018 08:00:00 11,0 6,1 0,0
17.04.2018 07:00:00 10,5 5,8 0,0
17.04.2018 06:00:00 10,4 5,4 0,0
17.04.2018 05:00:00 10,0 5,2 0,0
17.04.2018 04:00:00 10,0 4,9 0,0
17.04.2018 03:00:00 10,2 4,7 0,0
17.04.2018 02:00:00 9,8 4,5 0,0
17.04.2018 01:00:00 9,5 4,7 0,0
17.04.2018 00:00:00 9,8 4,5 0,0
16.04.2018 23:00:00 9,4 4,3 0,0
16.04.2018 22:00:00 9,3 4,9 0,6
16.04.2018 21:00:00 9,5 3,8 0,0
16.04.2018 20:00:00 10,4 2,4 0,0
16.04.2018 19:00:00 11,2 2,4 0,0
16.04.2018 18:00:00 13,2 3,4 0,0
16.04.2018 17:00:00 15,2 4,7 0,0
16.04.2018 16:00:00 15,2 5,6 0,0
16.04.2018 15:00:00 12,6 7,4 0,0
16.04.2018 14:00:00 13,9 6,4 0,0
16.04.2018 13:00:00 13,3 6,5 0,0
16.04.2018 12:00:00 12,5 6,1 0,0
16.04.2018 11:00:00 11,5 5,7 0,0
16.04.2018 10:00:00 11,6 6,4 0,0
16.04.2018 09:00:00 8,9 6,0 0,0
16.04.2018 08:00:00 7,5 5,2 0,0
16.04.2018 07:00:00 6,2 5,0 0,0
16.04.2018 06:00:00 6,2 5,0 0,0
16.04.2018 05:00:00 6,4 4,9 0,0
16.04.2018 04:00:00 6,3 4,6 0,0
16.04.2018 03:00:00 6,2 4,6 0,0
16.04.2018 02:00:00 6,9 4,7 0,0
16.04.2018 01:00:00 7,5 4,8 0,0
16.04.2018 00:00:00 7,6 4,9 0,0
15.04.2018 23:00:00 7,8 5,0 0,0
15.04.2018 22:00:00 8,0 5,1 0,0
15.04.2018 21:00:00 8,8 5,2 0,0
15.04.2018 20:00:00 10,8 5,3 0,0
15.04.2018 19:00:00 13,6 6,0 0,0
15.04.2018 18:00:00 14,8 6,1 0,0
15.04.2018 17:00:00 15,1 6,0 0,0
15.04.2018 16:00:00 15,3 6,0 0,0
15.04.2018 15:00:00 15,1 6,6 0,0
15.04.2018 14:00:00 14,6 5,4 0,0
15.04.2018 13:00:00 14,3 4,7 0,0
15.04.2018 12:00:00 13,5 5,5 0,0
15.04.2018 11:00:00 12,1 6,0 0,0
15.04.2018 10:00:00 9,5 6,5 0,0
15.04.2018 09:00:00 7,0 5,2 0,0
15.04.2018 08:00:00 5,5 4,3 0,0
15.04.2018 07:00:00 3,2 3,0 0,0
15.04.2018 06:00:00 3,6 3,4 0,0
15.04.2018 05:00:00 3,4 3,1 0,0
15.04.2018 04:00:00 3,1 2,8 0,0
15.04.2018 03:00:00 3,4 3,0 0,0
15.04.2018 02:00:00 4,1 3,8 0,0
15.04.2018 01:00:00 2,3 1,3 0,0
15.04.2018 00:00:00 5,4 4,3 0,0
14.04.2018 23:00:00 6,2 4,6 0,0
14.04.2018 22:00:00 7,6 5,4 0,0
14.04.2018 21:00:00 8,7 6,0 0,0
14.04.2018 20:00:00 10,6 6,8 0,0
14.04.2018 19:00:00 11,3 5,7 0,0
14.04.2018 18:00:00 12,9 5,6 0,0
14.04.2018 17:00:00 13,6 6,0 0,0
14.04.2018 16:00:00 12,3 5,8 0,0
14.04.2018 15:00:00 15,5 5,9 0,0
14.04.2018 14:00:00 14,1 5,5 0,0
14.04.2018 13:00:00 14,3 6,8 0,0
14.04.2018 12:00:00 12,1 6,0 0,0
14.04.2018 11:00:00 11,4 6,3 0,0
14.04.2018 10:00:00 10,5 7,7 0,0
14.04.2018 09:00:00 7,2 6,3 0,0

tt = Température de l'air
td = dewpoint
rr = Quantités de précipitations

stations d'obs. à proximité